OAL031 LGKY-LGAV

Flight info

Callsign OAL031
Flight time 0h 35m
Altitude 18000
Route AKINA L995 VARIX
Aircraft DH8D/M-SDE2E3FGRY/H

Departure

Time 2026-05-07 13:25
Airport Kalymnos Airport (LGKY)

Arrival

Time 2026-05-07 14:01
Airport Athens Eleftherios Venizelos International Airport (LGAV)
Time Latitude Longitude Altitude Speed Heading
2026-05-07 13:10 36.96428 26.94068 750 ft 0 kts 62°
2026-05-07 13:20 36.96429 26.94069 750 ft 1 kts 62°
2026-05-07 13:20 36.96419 26.94091 748 ft 4 kts 139°
2026-05-07 13:21 36.96396 26.94114 748 ft 2 kts 153°
2026-05-07 13:21 36.96391 26.94116 748 ft 0 kts 170°
2026-05-07 13:23 36.96389 26.94116 748 ft 3 kts 175°
2026-05-07 13:23 36.96341 26.94117 753 ft 9 kts 138°
2026-05-07 13:23 36.96314 26.94267 736 ft 22 kts 101°
2026-05-07 13:23 36.96277 26.94484 712 ft 27 kts 102°
2026-05-07 13:24 36.96234 26.94647 696 ft 12 kts 124°
2026-05-07 13:24 36.96244 26.94700 689 ft 2 kts 290°
2026-05-07 13:24 36.96244 26.94698 690 ft 0 kts 278°
2026-05-07 13:24 36.96270 26.94533 708 ft 56 kts 281°
2026-05-07 13:25 36.96401 26.93750 774 ft 124 kts 280°
2026-05-07 13:25 36.96585 26.92606 1099 ft 135 kts 279°
2026-05-07 13:25 36.96713 26.91456 1683 ft 134 kts 278°
2026-05-07 13:25 36.96796 26.90327 2239 ft 134 kts 275°
2026-05-07 13:26 36.96853 26.89129 2662 ft 144 kts 274°
2026-05-07 13:26 36.96900 26.87815 2945 ft 163 kts 274°
2026-05-07 13:26 36.96940 26.86291 3163 ft 185 kts 272°
2026-05-07 13:26 36.96976 26.84606 3411 ft 203 kts 272°
2026-05-07 13:27 36.97014 26.82799 3673 ft 219 kts 275°
2026-05-07 13:27 36.97302 26.80898 4066 ft 225 kts 287°
2026-05-07 13:27 36.97747 26.79010 4585 ft 228 kts 288°
2026-05-07 13:27 36.98195 26.77100 5116 ft 230 kts 288°
2026-05-07 13:28 36.98640 26.75194 5634 ft 232 kts 288°
2026-05-07 13:28 36.99090 26.73250 6156 ft 234 kts 288°
2026-05-07 13:28 36.99543 26.71285 6679 ft 236 kts 288°
2026-05-07 13:28 36.99990 26.69340 7246 ft 236 kts 288°
2026-05-07 13:29 37.00440 26.67373 7800 ft 236 kts 288°
2026-05-07 13:29 37.00893 26.65387 8342 ft 237 kts 288°
2026-05-07 13:29 37.01339 26.63433 8873 ft 237 kts 288°
2026-05-07 13:29 37.01790 26.61449 9436 ft 237 kts 288°
2026-05-07 13:30 37.02240 26.59464 9945 ft 238 kts 288°
2026-05-07 13:30 37.02689 26.57486 10463 ft 238 kts 288°
2026-05-07 13:30 37.03138 26.55502 10958 ft 239 kts 288°
2026-05-07 13:30 37.03593 26.53491 11441 ft 240 kts 289°
2026-05-07 13:31 37.04047 26.51485 11898 ft 241 kts 288°
2026-05-07 13:31 37.04497 26.49487 12334 ft 243 kts 288°
2026-05-07 13:31 37.04956 26.47448 12812 ft 242 kts 289°
2026-05-07 13:31 37.05408 26.45444 13226 ft 243 kts 288°
2026-05-07 13:32 37.05868 26.43398 13594 ft 246 kts 289°
2026-05-07 13:32 37.06329 26.41348 13980 ft 247 kts 289°
2026-05-07 13:32 37.06792 26.39287 14406 ft 246 kts 288°
2026-05-07 13:32 37.07254 26.37227 14774 ft 248 kts 288°
2026-05-07 13:33 37.07717 26.35161 15186 ft 246 kts 288°
2026-05-07 13:33 37.08184 26.33079 15461 ft 250 kts 288°
2026-05-07 13:33 37.08651 26.30991 15877 ft 248 kts 287°
2026-05-07 13:33 37.09111 26.28930 16232 ft 248 kts 287°
2026-05-07 13:34 37.09578 26.26842 16474 ft 252 kts 287°
2026-05-07 13:34 37.10517 26.22634 17122 ft 253 kts 287°
2026-05-07 13:34 37.10989 26.20514 17439 ft 254 kts 287°
2026-05-07 13:35 37.11462 26.18388 17729 ft 255 kts 287°
2026-05-07 13:35 37.11939 26.16247 18014 ft 257 kts 287°
2026-05-07 13:35 37.12426 26.14058 18104 ft 266 kts 287°
2026-05-07 13:35 37.12930 26.11791 18131 ft 277 kts 287°
2026-05-07 13:36 37.13454 26.09425 18137 ft 286 kts 287°
2026-05-07 13:36 37.13994 26.06990 18138 ft 294 kts 287°
2026-05-07 13:36 37.14547 26.04490 18138 ft 301 kts 287°
2026-05-07 13:36 37.15104 26.01970 18134 ft 306 kts 287°
2026-05-07 13:37 37.15683 25.99349 18137 ft 310 kts 286°
2026-05-07 13:37 37.16254 25.96759 18135 ft 314 kts 286°
2026-05-07 13:37 37.16838 25.94106 18132 ft 317 kts 286°
2026-05-07 13:37 37.17426 25.91432 18126 ft 319 kts 286°
2026-05-07 13:38 37.18002 25.88812 18123 ft 321 kts 286°
2026-05-07 13:38 37.18588 25.86143 18126 ft 322 kts 286°
2026-05-07 13:38 37.19183 25.83427 18126 ft 323 kts 286°
2026-05-07 13:38 37.19778 25.80712 18132 ft 324 kts 286°
2026-05-07 13:39 37.20379 25.77969 18125 ft 325 kts 286°
2026-05-07 13:39 37.20976 25.75234 18121 ft 325 kts 286°
2026-05-07 13:39 37.21571 25.72509 18119 ft 326 kts 286°
2026-05-07 13:39 37.22164 25.69787 18103 ft 326 kts 286°
2026-05-07 13:40 37.22764 25.67034 18114 ft 326 kts 286°
2026-05-07 13:40 37.23356 25.64310 18134 ft 326 kts 286°
2026-05-07 13:40 37.23951 25.61577 18080 ft 326 kts 286°
2026-05-07 13:40 37.24543 25.58843 18112 ft 324 kts 286°
2026-05-07 13:41 37.25134 25.56118 18112 ft 325 kts 285°
2026-05-07 13:41 37.25725 25.53385 18121 ft 325 kts 285°
2026-05-07 13:41 37.26318 25.50643 18122 ft 325 kts 286°
2026-05-07 13:41 37.26910 25.47903 18121 ft 325 kts 286°
2026-05-07 13:42 37.27495 25.45190 18131 ft 325 kts 285°
2026-05-07 13:42 37.28084 25.42455 18127 ft 325 kts 285°
2026-05-07 13:42 37.28676 25.39704 18125 ft 324 kts 285°
2026-05-07 13:42 37.29256 25.37010 18125 ft 323 kts 286°
2026-05-07 13:43 37.29844 25.34266 18127 ft 322 kts 285°
2026-05-07 13:43 37.30421 25.31570 18124 ft 322 kts 285°
2026-05-07 13:43 37.31002 25.28857 18129 ft 321 kts 285°
2026-05-07 13:43 37.31577 25.26167 18119 ft 321 kts 285°
2026-05-07 13:44 37.32159 25.23446 18121 ft 321 kts 285°
2026-05-07 13:44 37.32738 25.20734 18024 ft 324 kts 285°
2026-05-07 13:44 37.33533 25.18069 17768 ft 330 kts 298°
2026-05-07 13:44 37.34827 25.15687 17541 ft 335 kts 305°
2026-05-07 13:45 37.36251 25.13339 17293 ft 339 kts 306°
2026-05-07 13:45 37.37690 25.10997 17055 ft 342 kts 306°
2026-05-07 13:45 37.39142 25.08640 16811 ft 344 kts 306°
2026-05-07 13:45 37.40612 25.06244 16569 ft 346 kts 306°
2026-05-07 13:46 37.42061 25.03884 16312 ft 334 kts 306°
2026-05-07 13:46 37.43460 25.01596 16047 ft 323 kts 306°
2026-05-07 13:46 37.44816 24.99374 15798 ft 325 kts 306°
2026-05-07 13:46 37.46200 24.97107 15556 ft 329 kts 306°
2026-05-07 13:47 37.47598 24.94811 15316 ft 332 kts 307°
2026-05-07 13:47 37.49000 24.92501 15078 ft 335 kts 306°
2026-05-07 13:47 37.50420 24.90159 14837 ft 338 kts 306°
2026-05-07 13:47 37.51824 24.87834 14582 ft 328 kts 306°
2026-05-07 13:48 37.53199 24.85558 14336 ft 327 kts 306°
2026-05-07 13:48 37.54576 24.83280 13999 ft 329 kts 306°
2026-05-07 13:48 37.55965 24.80991 13650 ft 330 kts 307°
2026-05-07 13:48 37.57366 24.78668 13258 ft 329 kts 307°
2026-05-07 13:49 37.58731 24.76395 12869 ft 326 kts 307°
2026-05-07 13:49 37.60089 24.74126 12501 ft 325 kts 307°
2026-05-07 13:49 37.61438 24.71857 12111 ft 323 kts 306°
2026-05-07 13:49 37.62772 24.69605 11726 ft 321 kts 306°
2026-05-07 13:50 37.64110 24.67339 11365 ft 320 kts 307°
2026-05-07 13:50 37.65418 24.65118 11039 ft 318 kts 307°
2026-05-07 13:50 37.66734 24.62875 10697 ft 316 kts 306°
2026-05-07 13:50 37.68030 24.60660 10353 ft 315 kts 307°
2026-05-07 13:51 37.69333 24.58426 10011 ft 314 kts 307°
2026-05-07 13:51 37.70620 24.56213 9669 ft 310 kts 307°
2026-05-07 13:51 37.71867 24.54053 9307 ft 300 kts 306°
2026-05-07 13:51 37.73092 24.51937 8957 ft 294 kts 306°
2026-05-07 13:52 37.74286 24.49873 8607 ft 286 kts 306°
2026-05-07 13:52 37.75439 24.47884 8241 ft 278 kts 306°
2026-05-07 13:52 37.76570 24.45940 7893 ft 275 kts 306°
2026-05-07 13:52 37.77644 24.43991 7539 ft 267 kts 301°
2026-05-07 13:53 37.78539 24.41976 7194 ft 263 kts 298°
2026-05-07 13:53 37.79414 24.39955 6840 ft 260 kts 298°
2026-05-07 13:53 37.80280 24.37972 6505 ft 262 kts 298°
2026-05-07 13:53 37.81167 24.35956 6170 ft 264 kts 298°
2026-05-07 13:54 37.82061 24.33904 5846 ft 265 kts 297°
2026-05-07 13:54 37.82911 24.31836 5529 ft 265 kts 297°
2026-05-07 13:54 37.83777 24.29772 5206 ft 265 kts 296°
2026-05-07 13:54 37.84647 24.27731 4883 ft 265 kts 297°
2026-05-07 13:55 37.85525 24.25675 4560 ft 264 kts 297°
2026-05-07 13:55 37.86394 24.23648 4239 ft 262 kts 297°
2026-05-07 13:55 37.87258 24.21645 3923 ft 260 kts 297°
2026-05-07 13:55 37.88120 24.19653 3608 ft 259 kts 297°
2026-05-07 13:56 37.88989 24.17673 3290 ft 258 kts 297°
2026-05-07 13:56 37.89790 24.15657 2972 ft 255 kts 291°
2026-05-07 13:56 37.90418 24.13551 2664 ft 253 kts 286°
2026-05-07 13:56 37.90889 24.11450 2410 ft 248 kts 281°
2026-05-07 13:57 37.91287 24.09357 2156 ft 239 kts 281°
2026-05-07 13:57 37.91671 24.07358 1922 ft 227 kts 281°
2026-05-07 13:57 37.92035 24.05483 1704 ft 213 kts 281°
2026-05-07 13:57 37.92384 24.03714 1579 ft 200 kts 281°
2026-05-07 13:58 37.92556 24.02002 1511 ft 192 kts 266°
2026-05-07 13:58 37.92528 24.00335 1472 ft 179 kts 266°
2026-05-07 13:58 37.92575 23.98808 1490 ft 175 kts 283°
2026-05-07 13:58 37.93398 23.97804 1249 ft 174 kts 350°
2026-05-07 13:59 37.94519 23.98229 1036 ft 165 kts 35°
2026-05-07 13:59 37.95413 23.99020 970 ft 152 kts 36°
2026-05-07 13:59 37.96357 23.99470 755 ft 150 kts 344°
2026-05-07 13:59 37.96828 23.98602 983 ft 123 kts 246°
2026-05-07 14:00 37.96170 23.97955 623 ft 125 kts 213°
2026-05-07 14:00 37.95484 23.97304 437 ft 121 kts 217°
2026-05-07 14:00 37.94819 23.96672 305 ft 115 kts 217°
2026-05-07 14:00 37.94324 23.96201 284 ft 58 kts 217°
2026-05-07 14:01 37.94032 23.95922 272 ft 53 kts 217°
2026-05-07 14:01 37.93830 23.95630 274 ft 36 kts 246°
2026-05-07 14:01 37.93831 23.95448 279 ft 16 kts 307°
2026-05-07 14:01 37.93901 23.95385 284 ft 14 kts 11°
2026-05-07 14:02 37.94008 23.95478 284 ft 19 kts 36°
2026-05-07 14:02 37.94126 23.95550 284 ft 21 kts 335°
2026-05-07 14:02 37.94212 23.95418 289 ft 18 kts 308°
2026-05-07 14:02 37.94280 23.95303 293 ft 12 kts 314°
2026-05-07 14:03 37.94344 23.95332 293 ft 7 kts 37°
2026-05-07 14:03 37.94354 23.95341 293 ft 0 kts 37°